TimeEST,TemperatureF,Dew PointF,Humidity,Sea Level PressureIn,VisibilityMPH,Wind Direction,Wind SpeedMPH,Gust SpeedMPH,PrecipitationIn,Events,Conditions,WindDirDegrees,DateUTC
12:51 AM,21.9,16.0,78,30.47,10.0,Calm,Calm,-,N/A,,Clear,0,2013-11-04 05:51:00
1:51 AM,21.0,18.0,88,30.50,10.0,Calm,Calm,-,N/A,,Clear,0,2013-11-04 06:51:00
2:51 AM,19.0,16.0,88,30.53,10.0,Calm,Calm,-,N/A,,Clear,0,2013-11-04 07:51:00
3:51 AM,18.0,15.1,88,30.55,10.0,Calm,Calm,-,N/A,,Clear,0,2013-11-04 08:51:00
4:51 AM,19.0,16.0,88,30.57,10.0,Calm,Calm,-,N/A,,Clear,0,2013-11-04 09:51:00
5:51 AM,17.1,14.0,88,30.61,10.0,Calm,Calm,-,N/A,,Clear,0,2013-11-04 10:51:00
6:51 AM,16.0,12.9,88,30.63,10.0,Calm,Calm,-,N/A,,Clear,0,2013-11-04 11:51:00
7:51 AM,24.1,21.0,88,30.65,10.0,Calm,Calm,-,N/A,,Clear,0,2013-11-04 12:51:00
8:51 AM,30.9,19.0,61,30.66,10.0,WNW,3.5,-,N/A,,Clear,300,2013-11-04 13:51:00
9:51 AM,35.1,17.1,48,30.66,10.0,Calm,Calm,-,N/A,,Clear,0,2013-11-04 14:51:00
10:51 AM,37.9,10.9,33,30.66,10.0,NNW,5.8,-,N/A,,Clear,330,2013-11-04 15:51:00
11:51 AM,39.0,12.0,33,30.66,10.0,Calm,Calm,-,N/A,,Clear,0,2013-11-04 16:51:00
12:51 PM,41.0,12.9,32,30.63,10.0,NW,5.8,-,N/A,,Clear,310,2013-11-04 17:51:00
1:51 PM,41.0,12.9,32,30.63,10.0,Variable,6.9,-,N/A,,Clear,0,2013-11-04 18:51:00
2:51 PM,42.1,10.9,28,30.64,10.0,Calm,Calm,-,N/A,,Clear,0,2013-11-04 19:51:00
3:51 PM,41.0,10.0,28,30.64,10.0,NW,4.6,-,N/A,,Clear,320,2013-11-04 20:51:00
4:51 PM,32.0,12.9,45,30.66,10.0,Calm,Calm,-,N/A,,Clear,0,2013-11-04 21:51:00
5:51 PM,28.9,15.1,56,30.68,10.0,Calm,Calm,-,N/A,,Clear,0,2013-11-04 22:51:00
6:51 PM,26.1,16.0,66,30.69,10.0,Calm,Calm,-,N/A,,Clear,0,2013-11-04 23:51:00
7:51 PM,25.0,16.0,69,30.69,10.0,Calm,Calm,-,N/A,,Clear,0,2013-11-05 00:51:00
8:51 PM,23.0,16.0,74,30.71,10.0,Calm,Calm,-,N/A,,Clear,0,2013-11-05 01:51:00
9:51 PM,23.0,18.0,81,30.71,10.0,Calm,Calm,-,N/A,,Clear,0,2013-11-05 02:51:00
10:51 PM,21.9,17.1,82,30.71,10.0,Calm,Calm,-,N/A,,Clear,0,2013-11-05 03:51:00
11:51 PM,19.9,16.0,85,30.73,10.0,Calm,Calm,-,N/A,,Clear,0,2013-11-05 04:51:00